Regional Weather Roundup
Issued by NWS

Home | Current Version | Previous Version | Text Only | Print | Product List | Glossary Off
Versions: 1 2 3 4 5 6 7 8 9 10 11 12 13 14 15 16 17 18 19 20 21 22 23 24 25 26 27 28 29 30 31 32 33 34 35 36 37 38 39 40 41 42 43 44 45 46 47 48 49 50

849
ASUS43 KLMK 070310
RWRKY
KENTUCKY REGIONAL WEATHER ROUNDUP
NATIONAL WEATHER SERVICE LOUISVILLE KY
1000 PM EST TUE DEC 06 2016

NOTE "FAIR" INDICATES FEW OR NO CLOUDS BELOW 12,000 FEET
WITH NO SIGNIFICANT WEATHER AND/OR OBSTRUCTIONS TO VISIBILITY.

KYZ001>023-026-027-061>063-070>075-070400-
WESTERN AND SOUTH CENTRAL KENTUCKY

CITY           SKY/WX    TMP DP  RH WIND       PRES   REMARKS
PADUCAH        MOCLDY    40  34  79 N3        30.09R
HENDERSON      MOCLDY    37  32  81 W5        30.08R WCI  34
OWENSBORO      MOCLDY    40  35  83 NW6       30.06R
HOPKINSVILLE   CLOUDY    40  35  82 N7        30.06R
BOWLING GREEN  CLOUDY    41  35  79 NW8       30.05R
GLASGOW        CLOUDY    40  38  92 NW6       30.02S
$$

KYZ024-025-028>034-038-045-046-053-070400-
NORTH CENTRAL KENTUCKY

CITY           SKY/WX    TMP DP  RH WIND       PRES   REMARKS
LOUISVILLE/SDF CLOUDY    40  32  73 NW8       30.03R WCI  34
LOUISVILLE/LOU MOCLDY    40  31  70 NW9       30.03R WCI  34
FORT KNOX      CLOUDY    38  33  82 NW8       30.00S WCI  32
$$

KYZ035>037-039>044-047>052-055>060-089>105-070400-
NORTHEAST KENTUCKY

CITY           SKY/WX    TMP DP  RH WIND       PRES   REMARKS
LEXINGTON      CLOUDY    42  35  76 NW13      29.99R
COVINGTON      CLOUDY    37  32  82 W15       29.97R WCI  28
FRANKFORT      CLOUDY    42  33  70 NW8G18    29.99R
$$

KYZ054-064>069-076>088-106>120-070400-
SOUTHEAST KENTUCKY

CITY           SKY/WX    TMP DP  RH WIND       PRES   REMARKS
JACKSON        CLOUDY    43  39  86 W6        29.95R
LONDON         CLOUDY    44  38  79 W6        29.98R
SOMERSET       CLOUDY    43  36  75 NW6       30.02R
MIDDLESBORO    CLOUDY    47  42  82 NW8       29.97R
MONTICELLO     CLOUDY    43  38  82 NW8G16    30.02R
$$





USA.gov is the U.S. government's official web portal to all federal, state and local government web resources and services.